Location: *
(37.5724°S, 58.0067°E)
Time: 03:55:07
(UTC+00:00)

Tiangong - Visible Passes

Search period start: 09 December 2022 00:00
Search period end: 19 December 2022 00:00
Orbit: 386 x 392 km, 41.5° (Epoch: 08 December)

Date Brightness Start Highest point End Pass type
(mag) Time Alt. Az. Time Alt. Az. Time Alt. Az.
09 Dec 0.5 21:42:54 18° E 21:42:54 18° E 21:43:51 10° ESE visible
09 Dec -1.1 23:15:11 15° W 23:17:39 45° S 23:20:50 10° ESE visible
10 Dec -1.5 22:19:23 57° S 22:19:23 57° S 22:22:32 10° ESE visible
10 Dec -0.7 23:53:25 10° WSW 23:56:32 40° S 23:59:40 10° ESE visible
11 Dec 0.8 21:23:34 15° ESE 21:23:34 15° ESE 21:24:12 10° ESE visible
11 Dec -0.8 22:55:51 16° WSW 22:58:06 39° S 23:01:12 10° ESE visible
12 Dec -0.8 22:00:03 41° SSE 22:00:03 41° SSE 22:02:46 10° ESE visible
12 Dec -1.0 23:33:42 10° WSW 23:36:53 46° S 23:40:03 10° E visible
13 Dec 1.2 21:04:17 10° ESE 21:04:17 10° ESE 21:04:20 10° ESE visible
13 Dec -0.8 22:36:34 21° SW 22:38:22 40° S 22:41:29 10° ESE visible
14 Dec 0.0 21:40:54 28° SE 21:40:54 28° SE 21:42:54 10° ESE visible
14 Dec -1.6 23:13:45 10° WSW 23:17:00 63° SSE 23:20:15 10° E visible
15 Dec -1.1 22:17:47 40° SSW 22:18:27 47° S 22:21:37 10° E visible
15 Dec -1.9 23:52:14 10° WSW 23:55:25 50° NNW 23:58:33 10° NE visible
16 Dec 1.0 21:22:45 11° ESE 21:22:45 11° ESE 21:22:55 10° ESE visible
16 Dec -2.2 22:55:07 24° WSW 22:56:54 83° NNW 23:00:09 10° ENE visible
17 Dec 0.5 22:00:48 16° E 22:00:48 16° E 22:01:33 10° E visible
17 Dec -1.1 23:33:12 16° W 23:35:04 27° NNW 23:37:51 10° NNE visible
18 Dec -0.2 16:07:08 10° N 16:08:46 13° NE 16:10:26 10° ENE visible
18 Dec 0.2 17:42:04 10° WNW 17:42:54 17° WNW 17:42:54 17° WNW visible
